RH
21 23 22 22 20 18 19 20 24 20 15 15 17 20 19 18 17 16 18 19 15 13 13 19 21 22 22 24 32 39 44 45 49 51 50 51 53 52 52 50 50 50 48 46
20 22 19 14 16 18 20 23 25 21 16 17 18 21 18 18 18 18 18 17 16 13 11 17 21 23 22 23 28 37 41 43 46 50 51 50 50 53 53 53 50 50 49 48
21 17 16 15 16 17 17 19 20 19 23 21 21 27 25 19 20 19 22 21 22 19 19 15 26 24 22 22 25 33 38 40 44 47 50 50 49 50 53 53 53 51 49 48
18 15 15 17 18 18 21 22 22 23 28 28 22 36 25 21 23 24 26 26 25 25 24 24 21 21 26 22 22 24 31 37 42 44 48 51 51 53 52 51 50 50 50 49
23 17 18 20 20 17 19 22 23 22 27 31 28 31 24 22 25 25 25 24 25 25 26 26 27 21 23 26 23 23 27 34 40 41 43 47 51 48 48 49 48 49 49 50
25 17 17 20 19 18 20 21 26 27 35 44 28 31 30 25 22 23 24 27 27 28 29 29 24 22 22 23 26 25 26 30 35 38 41 42 46 47 48 48 48 48 49 50
23 22 20 18 21 21 23 34 47 43 48 46 21 24 32 24 24 24 28 29 30 31 32 32 34 29 24 27 28 28 27 29 32 36 39 41 42 43 45 46 48 48 50 52
31 27 19 19 21 25 26 30 43 30 32 30 24 32 29 21 25 27 30 31 31 32 34 34 35 32 29 23 30 34 34 31 31 33 35 37 40 42 45 46 46 46 47 46
36 27 18 19 19 21 25 28 24 28 30 33 30 23 20 18 26 30 32 35 40 39 39 38 35 34 34 32 29 28 35 36 34 34 34 36 37 42 44 46 47 47 45 44
34 35 21 21 20 21 23 25 32 41 30 36 30 25 32 25 33 34 40 44 44 43 41 40 38 37 35 34 32 31 32 36 33 36 38 38 38 39 42 46 47 48 48 49
55 33 30 22 26 29 29 27 26 32 42 38 42 38 30 36 37 41 42 44 45 43 40 38 36 35 34 32 32 33 32 34 32 33 37 38 41 42 43 44 46 48 49 48
58 56 44 31 22 20 20 24 29 47 41 44 47 45 36 37 38 38 38 38 39 39 40 41 35 33 32 31 30 32 30 31 33 34 29 34 37 40 45 47 48 50 53 54
55 64 64 34 35 36 36 27 29 32 43 41 50 44 35 38 39 36 38 38 38 36 35 37 36 33 31 28 29 29 28 28 29 33 32 29 27 36 40 43 45 49 52 53
61 68 63 64 52 44 43 41 41 42 51 46 44 36 50 46 44 41 40 36 34 34 33 32 34 32 29 28 28 28 28 27 26 30 32 30 32 34 32 38 40 43 45 49
48 67 60 55 46 44 46 48 48 50 48 55 42 45 51 46 44 41 38 35 34 35 34 33 33 33 29 29 28 29 28 27 27 28 33 31 29 29 34 35 36 39 40 43
48 61 53 54 41 40 42 39 41 44 43 45 43 48 49 43 36 33 37 33 35 33 31 32 30 28 28 29 28 28 29 28 28 28 30 33 28 28 28 36 38 36 37 39
51 56 56 63 42 38 46 63 57 50 42 56 66 47 34 32 33 29 36 30 34 35 33 32 31 29 29 29 28 28 28 27 28 30 29 32 30 31 30 32 34 39 39 38
50 49 51 62 41 43 58 36 41 44 41 32 31 32 32 32 31 30 31 31 31 36 34 33 30 28 27 27 27 28 28 29 28 30 31 35 35 35 33 33 32 34 37 41
43 49 62 60 62 45 50 38 39 46 70 34 36 34 31 31 32 31 29 28 29 32 28 28 27 28 29 28 28 29 29 31 33 32 31 34 36 37 37 36 34 35 33 38
43 41 53 58 71 74 49 33 27 31 90 33 31 33 35 37 46 43 33 32 28 27 28 31 31 32 32 30 30 31 34 34 34 34 35 37 37 39 39 38 35 34 33 39
52 80 89 75 82 61 40 31 31 56 59 32 31 35 38 44 41 39 35 33 32 32 32 32 33 34 32 32 32 36 35 37 35 37 34 36 38 38 40 39 38 37 36 42
65 73 72 79 87 89 34 32 41 36 34 33 35 36 41 40 39 37 36 36 35 35 35 34 36 36 34 33 34 37 38 36 35 36 36 38 38 40 42 42 41 40 40 45
58 49 63 61 77 42 34 32 32 34 36 35 40 40 40 41 41 41 42 39 37 37 37 37 37 38 36 35 34 39 38 37 38 39 40 40 41 42 43 45 46 44 47 49
54 45 64 60 44 42 37 33 32 31 35 37 38 43 43 48 49 50 48 47 45 45 45 47 50 49 47 46 48 47 43 41 41 43 44 44 45 46 46 47 50 51 51 53
64 56 60 59 48 46 43 36 37 39 43 42 42 48 52 54 54 53 53 52 51 51 49 51 52 55 60 56 54 57 64 65 61 56 51 48 46 46 49 50 52 53 54 53
60 61 69 66 55 58 52 39 41 46 46 52 58 60 57 56 57 56 56 55 54 55 55 54 53 53 54 54 54 56 56 59 62 62 66 66 61 54 51 54 60 58 58 58
Wind_Speed
4 3 4 6 4 4 1 3 5 8 1 3 5 8 13 10 7 8 9 10 9 9 9 26 37 38 40 41 42 42 41 40 38 37 34 30 30 29 28 28 26 24 23 23
3 5 7 4 1 2 2 4 7 7 5 5 6 9 7 9 6 5 7 1 7 6 3 9 27 36 40 41 41 42 43 42 40 39 38 35 34 31 29 27 25 26 25 25
5 5 4 0 3 3 3 3 2 2 6 5 3 7 8 6 10 14 10 5 8 8 8 2 8 32 38 38 40 42 43 43 42 39 36 32 28 30 31 31 30 29 28 27
4 1 2 1 3 2 4 1 2 3 5 3 5 2 6 4 9 10 10 10 9 10 8 9 8 6 26 39 40 40 42 42 42 39 38 37 31 26 31 35 34 31 30 29
7 3 1 2 3 2 5 3 3 1 1 3 4 5 3 4 6 7 9 10 9 9 8 9 9 9 22 25 38 37 39 41 40 41 39 38 34 34 29 32 32 33 31 32
8 2 3 5 2 2 3 4 4 2 3 2 6 5 4 2 4 3 5 9 9 10 10 8 16 17 7 23 31 36 35 37 39 40 40 40 39 36 33 29 32 33 33 33
6 2 1 1 3 2 3 4 3 3 3 5 2 4 6 5 6 7 8 9 10 10 10 13 14 16 19 8 22 30 35 35 35 37 40 39 40 39 37 35 33 33 33 35
2 3 2 1 1 2 3 5 4 2 2 4 3 4 4 6 8 7 8 8 12 12 11 13 14 27 27 21 7 16 24 34 34 34 36 38 39 38 39 38 36 36 38 38
6 3 2 2 2 2 3 0 3 1 2 2 2 4 6 3 9 8 9 12 10 11 11 13 19 25 27 36 31 10 9 19 28 31 34 35 37 39 39 39 38 38 37 38
4 4 3 2 2 2 3 2 3 3 1 3 2 4 4 4 8 5 8 9 9 10 12 12 17 23 27 32 35 35 27 13 16 21 27 34 36 38 40 40 39 40 38 38
5 1 6 3 2 4 1 2 1 2 4 3 1 3 7 12 7 7 8 8 8 9 9 10 16 23 28 32 34 33 35 30 27 17 24 26 30 38 39 40 42 42 42 42
3 1 4 6 1 1 2 1 3 4 5 1 4 2 7 5 7 9 8 7 7 7 8 7 15 21 24 27 30 31 33 34 33 30 24 22 29 30 34 40 41 40 40 41
4 2 3 4 5 6 5 3 4 0 2 2 3 4 3 7 10 7 8 7 7 8 9 9 14 18 21 24 27 29 32 35 36 35 29 24 17 26 32 36 38 38 39 39
3 3 5 5 2 5 6 5 3 3 1 2 4 6 9 10 9 9 8 6 6 7 7 7 7 13 20 23 26 28 32 35 36 35 28 30 29 26 19 31 35 38 38 39
4 3 4 6 7 4 5 6 7 5 6 4 3 6 7 6 6 7 7 7 7 7 7 6 7 11 19 22 25 28 30 34 36 34 27 25 29 30 26 23 21 31 36 38
6 4 6 5 9 10 11 11 12 11 8 9 6 2 8 6 6 10 9 13 8 8 9 8 9 14 17 22 25 28 29 31 35 34 32 25 29 32 31 28 25 22 23 34
3 1 4 5 6 7 2 11 9 14 12 3 6 2 6 8 10 12 6 10 9 7 8 10 12 17 21 24 26 29 31 33 33 31 32 27 30 33 35 34 31 27 24 22
4 3 2 4 5 2 5 12 12 15 13 11 8 9 9 8 7 9 5 8 9 6 6 7 13 22 27 30 31 32 30 30 32 29 30 28 31 31 34 35 35 34 31 26
11 4 2 2 1 3 9 9 7 4 6 10 10 9 8 7 4 4 5 6 4 5 14 16 21 24 24 31 33 33 33 30 27 28 30 30 31 32 32 32 36 36 36 34
5 6 5 1 0 2 2 10 18 5 4 9 11 10 9 7 7 4 8 8 13 17 20 21 26 27 26 28 31 30 26 29 30 30 29 31 32 31 33 34 35 35 37 35
4 2 5 6 4 1 3 12 9 1 6 12 7 8 7 6 4 7 10 12 18 21 25 27 27 23 25 28 30 25 26 25 31 29 34 36 34 33 31 33 35 35 36 34
3 2 3 3 2 5 11 5 6 6 5 6 3 3 5 7 11 13 13 12 18 20 20 23 24 23 27 28 28 26 24 30 31 34 34 34 36 33 29 31 35 35 32 30
2 2 2 5 4 10 3 2 6 4 4 4 5 7 9 11 11 11 10 12 17 22 25 26 25 24 25 27 31 26 27 30 32 32 30 31 33 34 34 30 29 29 27 25
5 4 2 5 4 7 11 13 3 1 4 6 5 7 10 12 14 14 14 14 19 22 24 24 25 25 25 24 24 28 31 31 31 29 28 28 27 29 31 32 26 25 23 23
5 4 5 6 9 6 7 4 7 9 6 7 9 8 10 12 13 14 15 18 22 25 25 26 25 23 24 29 30 28 27 29 26 26 27 27 28 27 28 31 30 27 26 28
5 6 4 6 8 5 7 6 5 6 7 11 14 16 19 15 13 19 17 24 25 26 29 27 27 28 29 29 32 29 30 30 32 32 27 25 27 26 27 27 26 30 31 32
Wind_Direction
225 73 249 243 206 198 306 329 303 284 220 277 253 281 287 288 289 299 265 243 222 214 222 212 200 197 194 194 190 192 192 199 199 200 204 209 207 214 218 223 221 221 221 220
333 258 235 237 243 38 342 301 288 291 332 15 299 310 326 14 356 357 340 225 266 251 279 200 188 188 189 190 192 191 195 199 200 202 206 212 213 215 220 222 222 220 222 223
186 252 157 127 321 319 281 235 281 276 331 330 22 19 10 348 35 35 19 37 40 55 23 342 208 181 186 188 192 193 196 200 202 206 207 210 216 220 220 220 222 221 222 225
255 194 140 4 284 231 278 358 18 7 48 280 75 207 340 344 32 29 17 21 21 32 28 30 20 279 188 192 195 198 200 202 202 206 206 205 207 210 219 221 223 225 225 226
258 176 219 283 266 360 239 327 273 235 311 14 328 95 244 17 38 19 16 16 15 19 33 30 13 346 219 205 197 200 202 203 202 206 210 209 210 218 223 225 226 227 229 230
232 181 182 208 280 224 321 331 341 104 103 358 239 124 252 187 137 41 23 23 23 16 11 10 22 29 20 216 206 202 201 204 206 208 211 214 216 220 222 222 224 226 228 231
327 221 72 87 339 10 43 44 359 27 19 224 207 58 216 179 131 122 86 48 27 17 19 16 6 6 24 17 211 206 207 206 208 210 214 218 223 224 225 226 227 226 227 228
319 328 135 154 196 195 234 142 148 227 191 266 8 169 211 160 106 76 75 72 46 32 22 22 17 22 12 18 36 219 216 214 213 214 218 222 227 229 231 234 234 233 236 238
2 322 323 45 359 97 325 3 188 195 296 63 213 31 18 142 77 53 61 60 45 36 28 23 24 27 21 26 22 356 236 231 227 226 228 228 230 232 234 237 239 240 245 247
297 310 259 285 7 294 187 252 41 11 277 282 291 179 203 194 87 69 60 59 45 37 33 25 25 23 25 26 28 29 23 289 249 241 240 239 237 238 241 241 242 242 244 247
15 59 294 12 211 218 44 312 216 156 154 175 310 13 341 104 122 94 66 61 52 44 37 30 26 25 24 23 22 21 20 19 19 322 262 247 246 244 243 244 249 249 250 248
52 275 271 240 258 188 177 15 116 119 303 329 143 34 332 81 90 79 61 58 50 47 33 26 26 28 23 15 15 16 13 9 8 3 5 274 255 249 245 246 249 253 253 253
338 332 323 329 347 3 54 4 49 261 87 252 117 166 357 46 52 42 67 51 47 41 32 23 19 22 17 10 2 2 9 4 4 7 8 4 345 271 253 251 252 252 254 254
171 253 189 210 168 332 313 320 3 97 104 286 238 130 32 39 44 23 13 19 56 49 41 31 19 14 11 5 358 353 358 1 359 2 9 13 11 4 317 268 258 254 254 254
47 277 296 301 299 296 259 266 281 257 230 200 274 351 67 37 39 0 350 1 29 26 21 26 20 5 2 356 354 350 350 351 351 351 353 3 358 1 356 355 308 273 261 256
359 293 330 297 285 280 277 271 262 242 255 264 229 150 359 10 23 14 24 36 29 15 10 8 11 1 354 346 344 341 340 343 346 344 342 347 354 350 351 349 342 333 296 267
292 301 352 269 350 306 17 339 316 78 43 41 61 344 338 5 16 348 18 19 4 353 14 6 349 344 338 333 333 330 333 334 336 338 336 340 349 345 342 340 339 332 325 317
251 331 324 278 349 253 119 25 63 87 58 46 38 17 19 1 342 318 40 12 348 356 350 332 325 325 323 328 328 325 327 324 328 331 332 337 342 337 335 334 333 333 331 318
205 179 276 243 263 252 20 11 342 322 46 28 20 348 329 319 318 328 329 343 315 315 318 314 318 316 319 322 322 323 319 321 325 325 322 327 331 328 326 325 325 326 326 322
172 192 162 80 338 278 37 348 336 316 165 357 337 327 324 337 346 297 322 327 323 318 321 322 320 310 307 312 319 313 318 320 313 314 318 322 320 320 319 319 319 317 320 319
355 110 232 251 234 229 5 354 330 255 332 329 331 323 342 340 254 283 307 307 307 307 304 305 308 298 305 307 310 304 307 300 308 313 318 311 311 314 314 313 315 314 315 317
10 354 335 356 297 246 356 5 41 272 285 312 333 289 283 283 299 302 301 301 303 302 303 303 298 295 300 308 306 297 296 304 308 307 309 307 308 307 306 308 313 316 314 314
276 137 229 191 242 316 2 320 254 255 278 296 297 295 303 311 305 299 298 305 304 304 305 305 295 293 295 298 300 288 297 304 302 301 298 299 303 303 303 303 305 309 309 306
315 326 282 1 295 298 302 305 3 275 286 298 297 324 334 340 343 341 336 333 331 336 335 340 340 330 328 334 330 323 313 304 298 291 289 292 293 293 293 295 295 297 298 300
229 325 255 270 281 301 296 306 311 330 353 344 352 6 349 345 338 333 331 329 328 326 325 326 319 316 317 319 320 324 324 326 326 319 307 298 295 289 287 287 287 288 293 292
186 221 185 262 257 236 262 284 310 354 357 5 3 350 346 347 336 333 325 322 320 317 317 311 307 306 309 313 313 314 311 306 304 305 306 311 312 303 292 286 285 296 297 297